Location: Hodgson Observatory
(42.9992°N, 96.7577°W)
Time: 21:11:07
(UTC-05:00)

Daily predictions for brighter satellites

Satellite Brightness Start Highest point End
(mag) Time Altitude Azimuth Time Altitude Azimuth Time Altitude Azimuth
Cosmos 2344 3.9 20:04:00 10° S 20:11:15 47° ESE 20:19:09 10° NE
CZ-2D R/B 4.3 20:09:55 10° SE 20:13:09 26° ENE 20:16:26 10° NNE
Helios 1B rocket 4.0 20:13:03 10° NE 20:15:38 16° E 20:18:12 10° SE
Helios 1A 4.3 20:15:23 10° ESE 20:18:37 22° ENE 20:21:52 10° NNE
Cosmos 1437 Rocket 2.8 20:17:47 10° S 20:21:42 59° E 20:25:42 10° NNE
SJ-6B 2.8 20:18:56 10° S 20:22:40 79° WSW 20:26:26 10° NNW
Lacrosse 4 Rocket 1.2 20:21:47 10° SSW 20:25:49 74° ESE 20:29:52 10° NNE
Resurs 1-3 3.8 20:25:50 10° SSE 20:30:03 51° ENE 20:34:20 10° N
In-Cosmos 22 4.3 20:33:43 10° N 20:38:54 48° ENE 20:43:59 10° SSE
Spot 2 Rocket 3.5 20:35:01 10° SSE 20:40:06 74° ENE 20:45:13 10° N
Cosmos 1844 Rocket 2.9 20:35:20 10° SSW 20:40:59 77° WNW 20:46:39 10° NNE
Cosmos 2150 Rocket 4.0 20:37:04 10° SSW 20:42:13 90° ESE 20:47:25 10° NNE
Cosmos 1758 4.3 20:39:21 10° SE 20:42:39 25° E 20:45:58 10° NNE
USA 215 3.7 20:39:08 10° ENE 20:45:14 40° SE 20:51:16 10° SSW
Tiangong 1 1.3 20:44:23 10° W 20:47:16 53° SSW 20:48:47 24° SE
Cosmos 1378 3.5 20:43:36 10° NNW 20:47:21 66° W 20:51:03 10° S
CZ-3 Stage 3 4.4 19:55:39 10° WSW 20:47:34 50° S 20:54:42 17° ESE
SAR-Lupe-4 3.9 20:45:20 12° SE 20:48:28 45° ENE 20:51:56 10° N
Cosmos 1833 Rocket 3.8 20:45:08 10° N 20:49:52 27° NE 20:52:40 18° E
Cosmos 2278 Rocket 2.3 20:44:51 10° S 20:50:22 56° ESE 20:55:55 10° NNE
Cosmos 1939 Rocket 4.1 20:49:27 20° ESE 20:51:01 25° ENE 20:54:25 10° NNE
Cosmos 1953 3.1 20:49:20 10° SSE 20:52:56 31° E 20:56:32 10° NNE
Okean 3 Rocket 3.6 20:50:38 10° N 20:54:57 56° E 20:59:17 10° SSE
Cosmos 1898 Rocket 4.3 20:49:56 10° SW 20:55:09 55° WNW 21:00:21 10° NNE
Cosmos 990 Rocket 4.0 20:50:40 10° SSW 20:55:56 90° ESE 21:01:13 10° NNE
USA 186 0.9 20:56:32 46° ESE 20:56:52 53° ENE 20:59:04 10° N
Cosmos 1934 Rocket 4.0 20:50:51 10° S 20:57:00 87° W 21:03:08 10° N
Abrixas 3.3 20:54:29 10° NW 20:57:11 37° NNE 20:58:09 27° ENE
H-2A R/B 3.2 20:54:04 10° S 20:57:54 64° WSW 21:01:49 10° NNW
Envisat 3.5 20:54:30 17° SE 20:58:04 40° ENE 21:02:47 10° N
BREEZE-M DEB (TANK) 3.8 21:00:51 10° NW 21:02:46 21° N 21:03:40 17° NE
Cosmos 2297 4.3 20:57:50 10° SSE 21:02:49 32° ESE 21:07:51 10° NE
Cosmos 1125 Rocket 4.0 20:58:59 10° SSE 21:03:41 36° ESE 21:08:24 10° NE
Meteor 1-24 Rocket 4.1 20:58:57 10° NNW 21:04:21 66° W 21:09:55 10° S
SAR-Lupe-1 3.9 21:05:37 21° SSE 21:07:53 70° ENE 21:11:29 10° N
Geosat 4.0 21:06:42 10° NNE 21:11:45 84° WNW 21:16:46 10° SSW
BREEZE-M DEB (TANK) 3.2 21:10:07 10° SW 21:13:03 76° SE 21:21:24 10° ENE
Lacrosse 5 rocket 3.0 21:11:10 10° NNW 21:14:02 19° NNE 21:15:09 17° NE
CZ-4B DEB 2.6 21:14:19 53° ESE 21:14:46 62° ENE 21:17:51 10° N
Meteor 1-4 Rocket 2.5 21:14:45 35° SSE 21:15:53 53° E 21:19:18 10° NNE
ALOS 4.2 21:12:06 10° SSW 21:16:13 30° W 21:20:21 10° NNW
GP-B 3.1 21:14:49 20° SSE 21:17:45 58° E 21:22:07 10° N
Cosmos 1544 2.9 21:14:09 10° S 21:17:47 81° E 21:21:28 10° N
Cosmos 1766 4.3 21:14:15 10° SSW 21:18:00 47° WNW 21:21:47 10° N
USA 267 4.1 21:14:41 20° ENE 21:18:38 38° NNE 21:24:33 10° NW
Resurs 01 Rocket 2.9 21:14:37 10° S 21:18:46 40° W 21:22:58 10° NNW
RESURS DK-1 3.0 21:15:03 10° NW 21:19:06 54° WSW 21:22:06 17° S
Cosmos 2082 Rocket 2.5 21:13:56 10° NNW 21:19:27 48° ENE 21:21:39 32° ESE
SL-27 R/B 3.8 21:17:44 10° NW 21:21:06 40° WSW 21:24:14 12° S
Cosmos 1818 3.6 21:18:22 10° NNW 21:23:48 66° NE 21:26:00 36° ESE
Meteor 1-29 2.8 21:20:44 10° NNE 21:24:13 76° ESE 21:26:20 22° S
ERS-1 Rocket 3.5 21:23:31 35° E 21:24:36 39° ENE 21:29:17 10° N
COSMOS 2487 3.3 21:21:49 10° N 21:24:44 36° NE 21:24:44 36° NE
Lacrosse 5 1.9 21:27:58 10° SW 21:33:03 78° NW 21:37:28 14° NE
Timation 1 Rocket 4.2 21:27:49 10° SSW 21:33:47 70° ESE 21:39:46 10° NNE
Cosmos 1766 Rocket 3.5 21:29:34 10° N 21:34:03 70° E 21:35:09 49° SE
Cosmos 2100 Rocket 4.1 21:28:37 13° SSE 21:34:05 55° E 21:40:17 10° NNE
Cosmos 1076 Rocket 3.4 21:30:31 10° N 21:34:47 83° W 21:36:38 33° S
Cosmos 1605 Rocket 4.4 21:28:43 10° SSW 21:34:55 65° W 21:41:15 10° N
SPOT 5 4.0 21:37:51 30° ENE 21:37:51 30° ENE 21:42:26 10° N
Cosmos 1269 Rocket 3.9 21:33:39 10° NNW 21:38:57 75° ENE 21:40:34 45° SE
Cosmos 2098 Rocket 4.4 21:35:09 10° S 21:42:12 85° W 21:49:53 10° N
Meteor 1-21 Rocket 4.3 21:38:38 10° NNW 21:44:28 81° W 21:48:21 22° S
ARGOS 4.0 21:48:13 32° ENE 21:48:13 32° ENE 21:52:33 10° N
CZ-3B DEB 3.2 21:40:25 10° WSW 21:49:59 53° NW 21:53:28 18° NE
Helios 1B rocket 3.6 21:47:13 10° N 21:51:10 43° WNW 21:55:04 10° SW
Cosmos 1802 Rocket 3.9 21:49:52 44° SE 21:51:32 59° E 21:57:34 10° NNE
MetOp-A 4.3 21:53:17 49° ENE 21:53:20 49° ENE 21:58:28 10° N
Cosmos 1674 2.9 21:50:02 10° NNW 21:53:30 67° WNW 21:53:30 67° WNW
Cosmos-2242 3.0 21:58:46 71° N 21:58:46 71° N 22:02:37 10° N
Cosmos 1867 3.4 21:53:56 10° SSW 21:59:22 76° ESE 22:04:51 10° NE
Cosmos 2061 Rocket 3.9 21:56:15 30° S 21:59:35 75° E 22:06:01 10° N
Timation 2 Rocket 3.8 21:57:04 10° NNW 22:03:29 85° ENE 22:04:44 60° SSE
Cosmos 1340 Rocket 3.6 21:59:54 10° N 22:02:52 47° N 22:02:52 47° N
Lacrosse 4 Rocket 4.5 22:03:00 10° WNW 22:05:01 13° NW 22:07:04 10° NNW
Cosmos 1743 Rocket 4.2 22:01:37 10° N 22:04:55 48° NNE 22:04:55 48° NNE
Cosmos 1470 4.0 22:09:00 37° N 22:09:00 37° N 22:11:33 10° N
Terra 4.1 22:13:03 13° NNE 22:13:03 13° NNE 22:13:56 10° NNE
Cosmos 372 Rocket 4.1 22:10:05 10° SSW 22:15:10 70° WNW 22:20:20 10° NNE
YAOGAN 6 4.4 22:20:41 31° NW 22:20:41 31° NW 22:22:49 10° NNW
H-2A R/B 3.3 22:26:32 32° NNE 22:26:32 32° NNE 22:29:50 10° N
USA 215 3.5 22:21:58 10° NE 22:28:26 65° NW 22:34:52 10° WSW
NOAA 11 4.3 22:33:23 72° NW 22:33:23 72° NW 22:38:20 10° NNW
Cosmos 1833 Rocket 3.3 22:28:38 10° NW 22:34:02 50° WSW 22:34:24 49° WSW
Cosmos 2278 Rocket 4.3 22:30:11 10° WSW 22:34:47 25° NW 22:39:27 10° N
Lacrosse 5 rocket 4.0 22:49:54 10° NW 22:50:52 17° NW 22:50:52 17° NW
USA 267 3.3 23:02:01 72° WNW 23:02:01 72° WNW 23:07:49 10° NW
Cosmos 2082 Rocket 3.8 22:58:37 10° NW 23:03:13 26° WSW 23:03:32 26° WSW
Lacrosse 5 3.9 23:12:38 10° WNW 23:16:44 24° NNW 23:16:45 24° NNW
